| time (UTC) | temp F | wind direction | speed MPH | gust MPH | rain 1hr in | rain 24hr in | rain mn in | humidity % | barometer mb |
| 20260505153009 | 54 | 100 | 1.0 | 7.0 | 0.00 | 0.00 | 0.00 | 67 | 1011.1 |
| 20260505151534 | 53 | 103 | 1.0 | 7.0 | 0.00 | 0.00 | 0.00 | 68 | 1010.9 |
| 20260505124613 | 58 | 67 | 1.0 | 5.0 | 0.00 | 0.00 | 0.00 | 46 | 1011.0 |
| 20260505123101 | 57 | 222 | 4.0 | 9.0 | 0.00 | 0.00 | 0.00 | 44 | 1011.1 |
| 20260505121557 | 56 | 12 | 3.0 | 8.0 | 0.00 | 0.00 | 0.00 | 45 | 1011.2 |
| 20260505120105 | 56 | 355 | 2.0 | 10.0 | 0.00 | 0.00 | 0.00 | 49 | 1011.1 |
| 20260505114558 | 56 | 311 | 1.0 | 6.0 | 0.00 | 0.00 | 0.00 | 52 | 1011.2 |
| 20260505113113 | 56 | 345 | 0.0 | 5.0 | 0.00 | 0.00 | 0.00 | 51 | 1011.2 |
| 20260505111555 | 56 | 131 | 0.0 | 2.0 | 0.00 | 0.00 | 0.00 | 53 | 1011.2 |
| 20260505101548 | 54 | 332 | 2.0 | 9.0 | 0.00 | 0.00 | 0.00 | 59 | 1011.4 |
| 20260505100047 | 56 | 5 | 5.0 | 10.0 | 0.00 | 0.00 | 0.00 | 57 | 1011.4 |
| 20260505094543 | 54 | 28 | 3.0 | 8.0 | 0.00 | 0.00 | 0.00 | 66 | 1011.6 |
| 20260505093043 | 53 | 327 | 2.0 | 9.0 | 0.00 | 0.00 | 0.00 | 66 | 1011.5 |
| 20260505091539 | 52 | 9 | 1.0 | 5.0 | 0.00 | 0.00 | 0.00 | 66 | 1011.4 |
| 20260505090036 | 52 | 32 | 2.0 | 8.0 | 0.00 | 0.00 | 0.00 | 66 | 1011.4 |
| 20260505084543 | 51 | 328 | 1.0 | 8.0 | 0.00 | 0.00 | 0.00 | 69 | 1011.5 |
| 20260505083028 | 51 | 355 | 4.0 | 9.0 | 0.00 | 0.00 | 0.00 | 70 | 1011.5 |
| 20260505081525 | 50 | 338 | 5.0 | 11.0 | 0.00 | 0.00 | 0.00 | 72 | 1011.4 |
| 20260505080024 | 49 | 360 | 7.0 | 11.0 | 0.00 | 0.00 | 0.00 | 73 | 1011.3 |
| 20260505074516 | 49 | 343 | 7.0 | 13.0 | 0.00 | 0.00 | 0.00 | 74 | 1011.3 |
| 20260505073012 | 48 | 5 | 9.0 | 14.0 | 0.00 | 0.00 | 0.00 | 77 | 1011.4 |
| 20260505071507 | 47 | 348 | 7.0 | 15.0 | 0.00 | 0.00 | 0.00 | 77 | 1011.2 |
| 20260505070004 | 47 | 355 | 9.0 | 16.0 | 0.00 | 0.00 | 0.00 | 77 | 1011.3 |
| 20260505064603 | 47 | 349 | 8.0 | 15.0 | 0.00 | 0.00 | 0.00 | 82 | 1011.1 |
| 20260505063102 | 46 | 344 | 7.0 | 14.0 | 0.00 | 0.00 | 0.00 | 88 | 1011.2 |
| 20260505061557 | 46 | 327 | 9.0 | 15.0 | 0.00 | 0.00 | 0.00 | 89 | 1011.3 |
| 20260505060057 | 46 | 324 | 9.0 | 13.0 | 0.00 | 0.00 | 0.00 | 94 | 1011.3 |
| 20260505054546 | 45 | 313 | 6.0 | 11.0 | 0.00 | 0.00 | 0.00 | 94 | 1011.2 |
| 20260505053106 | 44 | 289 | 5.0 | 11.0 | 0.00 | 0.00 | 0.00 | 95 | 1011.2 |
| 20260505051537 | 43 | 284 | 5.0 | 11.0 | 0.00 | 0.00 | 0.00 | 95 | 1011.0 |
| 20260505041521 | 40 | 285 | 6.0 | 10.0 | 0.00 | 0.01 | 0.00 | 94 | 1010.8 |
| 20260505040018 | 40 | 254 | 3.0 | 8.0 | 0.00 | 0.01 | 0.00 | 94 | 1010.8 |
| 20260505034524 | 39 | 237 | 3.0 | 7.0 | 0.00 | 0.01 | 0.00 | 94 | 1010.8 |
| 20260505033015 | 39 | 223 | 3.0 | 5.0 | 0.00 | 0.01 | 0.00 | 94 | 1010.9 |
| 20260505031515 | 39 | 254 | 5.0 | 8.0 | 0.00 | 0.01 | 0.00 | 94 | 1010.8 |
| 20260505030012 | 39 | 256 | 3.0 | 6.0 | 0.00 | 0.01 | 0.00 | 94 | 1011.0 |
| 20260505024511 | 39 | 246 | 3.0 | 7.0 | 0.00 | 0.02 | 0.00 | 93 | 1011.0 |
| 20260505023008 | 40 | 263 | 5.0 | 9.0 | 0.00 | 0.02 | 0.00 | 93 | 1011.1 |
| 20260505021504 | 40 | 263 | 4.0 | 9.0 | 0.00 | 0.02 | 0.00 | 93 | 1011.1 |
| 20260505020003 | 40 | 268 | 5.0 | 9.0 | 0.00 | 0.02 | 0.00 | 93 | 1011.2 |
| 20260505014503 | 40 | 272 | 5.0 | 8.0 | 0.00 | 0.05 | 0.00 | 93 | 1011.2 |
| 20260505013102 | 41 | 267 | 5.0 | 9.0 | 0.00 | 0.05 | 0.00 | 93 | 1011.3 |
| 20260505011611 | 41 | 264 | 3.0 | 8.0 | 0.00 | 0.05 | 0.00 | 93 | 1011.4 |
| 20260505010055 | 41 | 239 | 3.0 | 7.0 | 0.00 | 0.05 | 0.00 | 92 | 1011.5 |
| 20260505004603 | 41 | 241 | 2.0 | 7.0 | 0.00 | 0.09 | 0.00 | 92 | 1011.6 |
| 20260505003055 | 41 | 248 | 4.0 | 8.0 | 0.00 | 0.09 | 0.00 | 92 | 1011.8 |
| 20260505001605 | 42 | 246 | 2.0 | 7.0 | 0.00 | 0.09 | 0.00 | 92 | 1011.8 |
| 20260505000105 | 41 | 259 | 4.0 | 7.0 | 0.00 | 0.09 | 0.00 | 92 | 1011.6 |
| 20260504234547 | 42 | 254 | 2.0 | 5.0 | 0.00 | 0.10 | 0.00 | 91 | 1011.3 |
| 20260504233102 | 43 | 273 | 3.0 | 10.0 | 0.00 | 0.10 | 0.00 | 92 | 1011.4 |
| 20260504231545 | 42 | 285 | 5.0 | 10.0 | 0.00 | 0.10 | 0.00 | 91 | 1011.5 |
| 20260504230042 | 43 | 273 | 6.0 | 10.0 | 0.00 | 0.10 | 0.00 | 91 | 1011.5 |
| 20260504224543 | 43 | 300 | 7.0 | 12.0 | 0.00 | 0.11 | 0.00 | 91 | 1011.5 |
| 20260504223039 | 43 | 293 | 7.0 | 12.0 | 0.00 | 0.11 | 0.00 | 91 | 1011.6 |
| 20260504221535 | 42 | 306 | 5.0 | 9.0 | 0.00 | 0.11 | 0.00 | 90 | 1011.6 |
| 20260504220034 | 43 | 275 | 6.0 | 10.0 | 0.00 | 0.11 | 0.00 | 90 | 1011.7 |
| 20260504214529 | 43 | 274 | 6.0 | 10.0 | 0.00 | 0.17 | 0.11 | 89 | 1011.9 |
| 20260504213032 | 43 | 276 | 5.0 | 10.0 | 0.00 | 0.17 | 0.11 | 89 | 1011.8 |
| 20260504211525 | 43 | 279 | 5.0 | 10.0 | 0.00 | 0.17 | 0.11 | 89 | 1011.8 |
| 20260504210023 | 44 | 284 | 5.0 | 9.0 | 0.00 | 0.17 | 0.11 | 88 | 1011.9 |
| 20260504204524 | 44 | 269 | 6.0 | 10.0 | 0.00 | 0.27 | 0.11 | 88 | 1011.8 |
| 20260504203018 | 45 | 269 | 4.0 | 10.0 | 0.00 | 0.27 | 0.11 | 87 | 1011.8 |
| 20260504201516 | 45 | 275 | 6.0 | 11.0 | 0.00 | 0.27 | 0.11 | 86 | 1011.7 |
| 20260504200015 | 46 | 298 | 6.0 | 10.0 | 0.00 | 0.27 | 0.11 | 85 | 1011.8 |
| 20260504194513 | 47 | 305 | 6.0 | 10.0 | 0.00 | 0.27 | 0.11 | 84 | 1011.7 |
| 20260504193013 | 47 | 310 | 7.0 | 13.0 | 0.00 | 0.27 | 0.11 | 84 | 1011.7 |
| 20260504191516 | 47 | 302 | 4.0 | 11.0 | 0.00 | 0.27 | 0.11 | 84 | 1011.6 |
| 20260504190011 | 47 | 313 | 7.0 | 11.0 | 0.00 | 0.27 | 0.11 | 83 | 1011.5 |
| 20260504184510 | 48 | 301 | 7.0 | 13.0 | 0.00 | 0.28 | 0.11 | 83 | 1011.4 |
| 20260504183008 | 49 | 284 | 7.0 | 14.0 | 0.00 | 0.28 | 0.11 | 82 | 1011.4 |
| 20260504181507 | 49 | 281 | 8.0 | 15.0 | 0.00 | 0.28 | 0.11 | 81 | 1011.4 |
| 20260504180005 | 49 | 303 | 11.0 | 18.0 | 0.00 | 0.28 | 0.11 | 78 | 1011.3 |
| 20260504174507 | 50 | 293 | 11.0 | 16.0 | 0.00 | 0.28 | 0.11 | 77 | 1011.2 |
| 20260504173105 | 51 | 313 | 13.0 | 17.0 | 0.00 | 0.28 | 0.11 | 76 | 1011.1 |
| 20260504171558 | 52 | 291 | 10.0 | 15.0 | 0.00 | 0.28 | 0.11 | 74 | 1011.2 |